This is the latest recevied weather packets stored in our database for station/object T10BNorth. If no packets are shown the sender has not sent any weather packets the latest 10 day(s).
| Time | Temp. | Humidity | Pressure | Rain* | Wind** | Luminosity | Snow |
|---|---|---|---|---|---|---|---|
| 1777653130 | 8.89° C | 62% | 1008 hPa | 0 mm | - | 860 W/m² | - |
| 1777653069 | 8.89° C | 66% | 1008 hPa | 0 mm | - | 868 W/m² | - |
| 1777652998 | 8.89° C | 63% | 1008 hPa | 0 mm | - | 877 W/m² | - |
| 1777652939 | 8.89° C | 62% | 1008 hPa | 0 mm | - | 893 W/m² | - |
| 1777652818 | 8.89° C | 63% | 1008 hPa | 0 mm | - | 911 W/m² | - |
| 1777652760 | 8.89° C | 64% | 1008 hPa | 0 mm | - | 912 W/m² | - |
| 1777652694 | 8.33° C | 68% | 1008.1 hPa | 0 mm | - | 923 W/m² | - |
| 1777652634 | 8.33° C | 67% | 1008 hPa | 0 mm | - | 930 W/m² | - |
| 1777652574 | 8.33° C | 65% | 1008.1 hPa | 0 mm | - | 940 W/m² | - |
| 1777652512 | 8.33° C | 69% | 1008.1 hPa | 0 mm | - | 951 W/m² | - |
| 1777652454 | 8.33° C | 65% | 1008.1 hPa | 0 mm | - | 250 W/m² | - |
| 1777652388 | 8.33° C | 65% | 1008 hPa | 0 mm | - | 250 W/m² | - |
| 1777652327 | 8.33° C | 64% | 1008.1 hPa | 0 mm | - | 250 W/m² | - |
| 1777652305 | 7.78° C | 63% | 1008.1 hPa | 0 mm | - | 202 W/m² | - |
| 1777652207 | 7.78° C | 68% | 1008.2 hPa | 0 mm | - | 661 W/m² | - |
| 1777652147 | 7.78° C | 67% | 1008.1 hPa | 0 mm | - | 661 W/m² | - |
| 1777652077 | 7.78° C | 65% | 1008.1 hPa | 0 mm | - | 661 W/m² | - |
| 1777652018 | 7.78° C | 64% | 1008.2 hPa | 0 mm | - | 661 W/m² | - |
| 1777651954 | 7.78° C | 63% | 1008.1 hPa | 0 mm | - | 661 W/m² | - |
| 1777651895 | 7.78° C | 64% | 1008.1 hPa | 0 mm | - | 176 W/m² | - |
| 1777651834 | 7.78° C | 65% | 1008.1 hPa | 0 mm | - | 176 W/m² | - |
| 1777651769 | 7.78° C | 63% | 1008.2 hPa | 0 mm | - | 176 W/m² | - |
| 1777651709 | 7.78° C | 64% | 1008.2 hPa | 0 mm | - | 190 W/m² | - |
| 1777651648 | 7.78° C | 66% | 1008.2 hPa | 0 mm | - | 229 W/m² | - |
| 1777651587 | 7.78° C | 67% | 1008.2 hPa | 0 mm | - | 204 W/m² | - |
* Rain latest hour (hover to see other rain measurements)
** Current wind speed in m/s (hover to see current wind gust speed)